Year,Month,Day,Hour,Minute,Value (Times are PST for barometer in hPa)
2008,01,04,00,00,993.13
2008,01,04,00,01,993.13
2008,01,04,00,02,993.13
2008,01,04,00,03,993.13
2008,01,04,00,04,993.13
2008,01,04,00,05,993.13
2008,01,04,00,06,993.13
2008,01,04,00,07,993.13
2008,01,04,00,08,993.13
2008,01,04,00,09,993.13
2008,01,04,00,10,993.13
2008,01,04,00,11,993.13
2008,01,04,00,12,993.13
2008,01,04,00,13,993.13
2008,01,04,00,14,993.13
2008,01,04,00,15,992.65
2008,01,04,00,16,992.65
2008,01,04,00,17,992.65
2008,01,04,00,18,992.65
2008,01,04,00,19,992.65
2008,01,04,00,20,992.65
2008,01,04,00,21,992.65
2008,01,04,00,22,992.65
2008,01,04,00,23,992.65
2008,01,04,00,24,992.65
2008,01,04,00,25,992.65
2008,01,04,00,26,992.65
2008,01,04,00,27,992.65
2008,01,04,00,28,992.65
2008,01,04,00,29,992.65
2008,01,04,00,30,992.62
2008,01,04,00,31,992.62
2008,01,04,00,32,992.62
2008,01,04,00,33,992.62
2008,01,04,00,34,992.62
2008,01,04,00,35,992.62
2008,01,04,00,36,992.62
2008,01,04,00,37,992.62
2008,01,04,00,38,992.62
2008,01,04,00,39,992.62
2008,01,04,00,40,992.62
2008,01,04,00,41,992.62
2008,01,04,00,42,992.62
2008,01,04,00,43,992.62
2008,01,04,00,44,992.62
2008,01,04,00,45,992.11
2008,01,04,00,46,992.11
2008,01,04,00,47,992.11
2008,01,04,00,48,992.11
2008,01,04,00,49,992.11
2008,01,04,00,50,992.11
2008,01,04,00,51,992.11
2008,01,04,00,52,992.11
2008,01,04,00,53,992.11
2008,01,04,00,54,992.11
2008,01,04,00,55,992.11
2008,01,04,00,56,992.11
2008,01,04,00,57,992.11
2008,01,04,00,58,992.11
2008,01,04,00,59,992.11
2008,01,04,01,00,991.81
2008,01,04,01,01,991.81
2008,01,04,01,02,991.81
2008,01,04,01,03,991.81
2008,01,04,01,04,991.81
2008,01,04,01,05,991.81
2008,01,04,01,06,991.81
2008,01,04,01,07,991.81
2008,01,04,01,08,991.81
2008,01,04,01,09,991.81
2008,01,04,01,10,991.81
2008,01,04,01,11,991.81
2008,01,04,01,12,991.81
2008,01,04,01,13,991.81
2008,01,04,01,14,991.81
2008,01,04,01,15,991.74
2008,01,04,01,16,991.74
2008,01,04,01,17,991.74
2008,01,04,01,18,991.74
2008,01,04,01,19,991.74
2008,01,04,01,20,991.74
2008,01,04,01,21,991.74
2008,01,04,01,22,991.74
2008,01,04,01,23,991.74
2008,01,04,01,24,991.74
2008,01,04,01,25,991.74
2008,01,04,01,26,991.74
2008,01,04,01,27,991.74
2008,01,04,01,28,991.74
2008,01,04,01,29,991.74
2008,01,04,01,30,991.20
2008,01,04,01,31,991.20
2008,01,04,01,32,991.20
2008,01,04,01,33,991.20
2008,01,04,01,34,991.20
2008,01,04,01,35,991.20
2008,01,04,01,36,991.20
2008,01,04,01,37,991.20
2008,01,04,01,38,991.20
2008,01,04,01,39,991.20
2008,01,04,01,40,991.20
2008,01,04,01,41,991.20
2008,01,04,01,42,991.20
2008,01,04,01,43,991.20
2008,01,04,01,44,991.20
2008,01,04,01,45,991.50
2008,01,04,01,46,991.50
2008,01,04,01,47,991.50
2008,01,04,01,48,991.50
2008,01,04,01,49,991.50
2008,01,04,01,50,991.50
2008,01,04,01,51,991.50
2008,01,04,01,52,991.50
2008,01,04,01,53,991.50
2008,01,04,01,54,991.50
2008,01,04,01,55,991.50
2008,01,04,01,56,991.50
2008,01,04,01,57,991.50
2008,01,04,01,58,991.50
2008,01,04,01,59,991.50
2008,01,04,02,00,991.18
2008,01,04,02,01,991.16
2008,01,04,02,02,991.16
2008,01,04,02,03,991.16
2008,01,04,02,04,991.16
2008,01,04,02,05,991.16
2008,01,04,02,06,991.16
2008,01,04,02,07,991.16
2008,01,04,02,08,991.16
2008,01,04,02,09,991.16
2008,01,04,02,10,991.16
2008,01,04,02,11,991.16
2008,01,04,02,12,991.16
2008,01,04,02,13,991.16
2008,01,04,02,14,991.16
2008,01,04,02,15,990.69
2008,01,04,02,16,990.69
2008,01,04,02,17,990.69
2008,01,04,02,18,990.69
2008,01,04,02,19,990.69
2008,01,04,02,20,990.69
2008,01,04,02,21,990.69
2008,01,04,02,22,990.69
2008,01,04,02,23,990.69
2008,01,04,02,24,990.69
2008,01,04,02,25,990.69
2008,01,04,02,26,990.69
2008,01,04,02,27,990.69
2008,01,04,02,28,990.69
2008,01,04,02,29,990.69
2008,01,04,02,30,989.92
2008,01,04,02,31,989.88
2008,01,04,02,32,989.88
2008,01,04,02,33,989.88
2008,01,04,02,34,989.88
2008,01,04,02,35,989.88
2008,01,04,02,36,989.88
2008,01,04,02,37,989.88
2008,01,04,02,38,989.88
2008,01,04,02,39,989.88
2008,01,04,02,40,989.88
2008,01,04,02,41,989.88
2008,01,04,02,42,989.88
2008,01,04,02,43,989.88
2008,01,04,02,44,989.88
2008,01,04,02,45,989.56
2008,01,04,02,46,989.54
2008,01,04,02,47,989.54
2008,01,04,02,48,989.54
2008,01,04,02,49,989.54
2008,01,04,02,50,989.54
2008,01,04,02,51,989.54
2008,01,04,02,52,989.54
2008,01,04,02,53,989.54
2008,01,04,02,54,989.54
2008,01,04,02,55,989.54
2008,01,04,02,56,989.54
2008,01,04,02,57,989.54
2008,01,04,02,58,989.54
2008,01,04,02,59,989.54
2008,01,04,03,00,989.20
2008,01,04,03,01,989.20
2008,01,04,03,02,989.20
2008,01,04,03,03,989.20
2008,01,04,03,04,989.20
2008,01,04,03,05,989.20
2008,01,04,03,06,989.20
2008,01,04,03,07,989.20
2008,01,04,03,08,989.20
2008,01,04,03,09,989.20
2008,01,04,03,10,989.20
2008,01,04,03,11,989.20
2008,01,04,03,12,989.20
2008,01,04,03,13,989.20
2008,01,04,03,14,989.20
2008,01,04,03,15,988.72
2008,01,04,03,16,988.72
2008,01,04,03,17,988.72
2008,01,04,03,18,988.72
2008,01,04,03,19,988.72
2008,01,04,03,20,988.72
2008,01,04,03,21,988.72
2008,01,04,03,22,988.72
2008,01,04,03,23,988.72
2008,01,04,03,24,988.72
2008,01,04,03,25,988.72
2008,01,04,03,26,988.72
2008,01,04,03,27,988.72
2008,01,04,03,28,988.72
2008,01,04,03,29,988.72
2008,01,04,03,30,988.55
2008,01,04,03,31,988.55
2008,01,04,03,32,988.55
2008,01,04,03,33,988.55
2008,01,04,03,34,988.55
2008,01,04,03,35,988.55
2008,01,04,03,36,988.55
2008,01,04,03,37,988.55
2008,01,04,03,38,988.55
2008,01,04,03,39,988.55
2008,01,04,03,40,988.55
2008,01,04,03,41,988.55
2008,01,04,03,42,988.55
2008,01,04,03,43,988.55
2008,01,04,03,44,988.55
2008,01,04,03,45,988.05
2008,01,04,03,46,988.05
2008,01,04,03,47,988.05
2008,01,04,03,48,988.05
2008,01,04,03,49,988.05
2008,01,04,03,50,988.05
2008,01,04,03,51,988.05
2008,01,04,03,52,988.05
2008,01,04,03,53,988.05
2008,01,04,03,54,988.05
2008,01,04,03,55,988.05
2008,01,04,03,56,988.05
2008,01,04,03,57,988.05
2008,01,04,03,58,988.05
2008,01,04,03,59,988.05
2008,01,04,04,00,987.15
2008,01,04,04,01,987.10
2008,01,04,04,02,987.10
2008,01,04,04,03,987.10
2008,01,04,04,04,987.10
2008,01,04,04,05,987.10
2008,01,04,04,06,987.10
2008,01,04,04,07,987.10
2008,01,04,04,08,987.10
2008,01,04,04,09,987.10
2008,01,04,04,10,987.10
2008,01,04,04,11,987.10
2008,01,04,04,12,987.10
2008,01,04,04,13,987.10
2008,01,04,04,14,987.10
2008,01,04,04,15,986.59
2008,01,04,04,16,986.59
2008,01,04,04,17,986.59
2008,01,04,04,18,986.59
2008,01,04,04,19,986.59
2008,01,04,04,20,986.59
2008,01,04,04,21,986.59
2008,01,04,04,22,986.59
2008,01,04,04,23,986.59
2008,01,04,04,24,986.59
2008,01,04,04,25,986.59
2008,01,04,04,26,986.59
2008,01,04,04,27,986.59
2008,01,04,04,28,986.59
2008,01,04,04,29,986.59
2008,01,04,04,30,985.88
2008,01,04,04,31,985.88
2008,01,04,04,32,985.88
2008,01,04,04,33,985.88
2008,01,04,04,34,985.88
2008,01,04,04,35,985.88
2008,01,04,04,36,985.88
2008,01,04,04,37,985.88
2008,01,04,04,38,985.88
2008,01,04,04,39,985.88
2008,01,04,04,40,985.88
2008,01,04,04,41,985.88
2008,01,04,04,42,985.88
2008,01,04,04,43,985.88
2008,01,04,04,44,985.88
2008,01,04,04,45,985.30
2008,01,04,04,46,985.27
2008,01,04,04,47,985.27
2008,01,04,04,48,985.27
2008,01,04,04,49,985.27
2008,01,04,04,50,985.27
2008,01,04,04,51,985.27
2008,01,04,04,52,985.27
2008,01,04,04,53,985.27
2008,01,04,04,54,985.27
2008,01,04,04,55,985.27
2008,01,04,04,56,985.27
2008,01,04,04,57,985.27
2008,01,04,04,58,985.27
2008,01,04,04,59,985.27
2008,01,04,05,00,984.43
2008,01,04,05,01,984.39
2008,01,04,05,02,984.39
2008,01,04,05,03,984.39
2008,01,04,05,04,984.39
2008,01,04,05,05,984.39
2008,01,04,05,06,984.39
2008,01,04,05,07,984.39
2008,01,04,05,08,984.39
2008,01,04,05,09,984.39
2008,01,04,05,10,984.39
2008,01,04,05,11,984.39
2008,01,04,05,12,984.39
2008,01,04,05,13,984.39
2008,01,04,05,14,984.39
2008,01,04,05,15,983.58
2008,01,04,05,16,983.58
2008,01,04,05,17,983.58
2008,01,04,05,18,983.58
2008,01,04,05,19,983.58
2008,01,04,05,20,983.58
2008,01,04,05,21,983.58
2008,01,04,05,22,983.58
2008,01,04,05,23,983.58
2008,01,04,05,24,983.58
2008,01,04,05,25,983.58
2008,01,04,05,26,983.58
2008,01,04,05,27,983.58
2008,01,04,05,28,983.58
2008,01,04,05,29,983.58
2008,01,04,05,30,982.90
2008,01,04,05,31,982.90
2008,01,04,05,32,982.90
2008,01,04,05,33,982.90
2008,01,04,05,34,982.90
2008,01,04,05,35,982.90
2008,01,04,05,36,982.90
2008,01,04,05,37,982.90
2008,01,04,05,38,982.90
2008,01,04,05,39,982.90
2008,01,04,05,40,982.90
2008,01,04,05,41,982.90
2008,01,04,05,42,982.90
2008,01,04,05,43,982.90
2008,01,04,05,44,982.90
2008,01,04,05,45,982.51
2008,01,04,05,46,982.49
2008,01,04,05,47,982.49
2008,01,04,05,48,982.49
2008,01,04,05,49,982.49
2008,01,04,05,50,982.49
2008,01,04,05,51,982.49
2008,01,04,05,52,982.49
2008,01,04,05,53,982.49
2008,01,04,05,54,982.49
2008,01,04,05,55,982.49
2008,01,04,05,56,982.49
2008,01,04,05,57,982.49
2008,01,04,05,58,982.49
2008,01,04,05,59,982.49
2008,01,04,06,00,982.02
2008,01,04,06,01,982.02
2008,01,04,06,02,982.02
2008,01,04,06,03,982.02
2008,01,04,06,04,982.02
2008,01,04,06,05,982.02
2008,01,04,06,06,982.02
2008,01,04,06,07,982.02
2008,01,04,06,08,982.02
2008,01,04,06,09,982.02
2008,01,04,06,10,982.02
2008,01,04,06,11,982.02
2008,01,04,06,12,982.02
2008,01,04,06,13,982.02
2008,01,04,06,14,982.02
2008,01,04,06,15,981.10
2008,01,04,06,16,981.10
2008,01,04,06,17,981.10
2008,01,04,06,18,981.10
2008,01,04,06,19,981.10
2008,01,04,06,20,981.10
2008,01,04,06,21,981.10
2008,01,04,06,22,981.10
2008,01,04,06,23,981.10
2008,01,04,06,24,981.10
2008,01,04,06,25,981.10
2008,01,04,06,26,981.10
2008,01,04,06,27,981.10
2008,01,04,06,28,981.10
2008,01,04,06,29,981.10
2008,01,04,06,30,980.39
2008,01,04,06,31,980.39
2008,01,04,06,32,980.39
2008,01,04,06,33,980.39
2008,01,04,06,34,980.39
2008,01,04,06,35,980.39
2008,01,04,06,36,980.39
2008,01,04,06,37,980.39
2008,01,04,06,38,980.39
2008,01,04,06,39,980.39
2008,01,04,06,40,980.39
2008,01,04,06,41,980.39
2008,01,04,06,42,980.39
2008,01,04,06,43,980.39
2008,01,04,06,44,980.39
2008,01,04,06,45,979.58
2008,01,04,06,46,979.58
2008,01,04,06,47,979.58
2008,01,04,06,48,979.58
2008,01,04,06,49,979.58
2008,01,04,06,50,979.58
2008,01,04,06,51,979.58
2008,01,04,06,52,979.58
2008,01,04,06,53,979.58
2008,01,04,06,54,979.58
2008,01,04,06,55,979.58
2008,01,04,06,56,979.58
2008,01,04,06,57,979.58
2008,01,04,06,58,979.58
2008,01,04,06,59,979.58
2008,01,04,07,00,978.80
2008,01,04,07,01,978.80
2008,01,04,07,02,978.80
2008,01,04,07,03,978.80
2008,01,04,07,04,978.80
2008,01,04,07,05,978.80
2008,01,04,07,06,978.80
2008,01,04,07,07,978.80
2008,01,04,07,08,978.80
2008,01,04,07,09,978.80
2008,01,04,07,10,978.80
2008,01,04,07,11,978.80
2008,01,04,07,12,978.80
2008,01,04,07,13,978.80
2008,01,04,07,14,978.80
2008,01,04,07,15,978.19
2008,01,04,07,16,978.19
2008,01,04,07,17,978.19
2008,01,04,07,18,978.19
2008,01,04,07,19,978.19
2008,01,04,07,20,978.19
2008,01,04,07,21,978.19
2008,01,04,07,22,978.19
2008,01,04,07,23,978.19
2008,01,04,07,24,978.19
2008,01,04,07,25,978.19
2008,01,04,07,26,978.19
2008,01,04,07,27,978.19
2008,01,04,07,28,978.19
2008,01,04,07,29,978.19
2008,01,04,07,30,977.84
2008,01,04,07,31,977.82
2008,01,04,07,32,977.82
2008,01,04,07,33,977.82
2008,01,04,07,34,977.82
2008,01,04,07,35,977.82
2008,01,04,07,36,977.82
2008,01,04,07,37,977.82
2008,01,04,07,38,977.82
2008,01,04,07,39,977.82
2008,01,04,07,40,977.82
2008,01,04,07,41,977.82
2008,01,04,07,42,977.82
2008,01,04,07,43,977.82
2008,01,04,07,44,977.82
2008,01,04,07,45,977.11
2008,01,04,07,46,977.11
2008,01,04,07,47,977.11
2008,01,04,07,48,977.11
2008,01,04,07,49,977.11
2008,01,04,07,50,977.11
2008,01,04,07,51,977.11
2008,01,04,07,52,977.11
2008,01,04,07,53,977.11
2008,01,04,07,54,977.11
2008,01,04,07,55,977.11
2008,01,04,07,56,977.11
2008,01,04,07,57,977.11
2008,01,04,07,58,977.11
2008,01,04,07,59,977.11
2008,01,04,08,00,976.98
2008,01,04,08,01,976.97
2008,01,04,08,02,976.97
2008,01,04,08,03,976.97
2008,01,04,08,04,976.97
2008,01,04,08,05,976.97
2008,01,04,08,06,976.97
2008,01,04,08,07,976.97
2008,01,04,08,08,976.97
2008,01,04,08,09,976.97
2008,01,04,08,10,976.97
2008,01,04,08,11,976.97
2008,01,04,08,12,976.97
2008,01,04,08,13,976.97
2008,01,04,08,14,976.97
2008,01,04,08,15,976.47
2008,01,04,08,16,976.47
2008,01,04,08,17,976.47
2008,01,04,08,18,976.47
2008,01,04,08,19,976.47
2008,01,04,08,20,976.47
2008,01,04,08,21,976.47
2008,01,04,08,22,976.47
2008,01,04,08,23,976.47
2008,01,04,08,24,976.47
2008,01,04,08,25,976.47
2008,01,04,08,26,976.47
2008,01,04,08,27,976.47
2008,01,04,08,28,976.47
2008,01,04,08,29,976.47
2008,01,04,08,30,975.92
2008,01,04,08,31,975.92
2008,01,04,08,32,975.92
2008,01,04,08,33,975.92
2008,01,04,08,34,975.92
2008,01,04,08,35,975.92
2008,01,04,08,36,975.92
2008,01,04,08,37,975.92
2008,01,04,08,38,975.92
2008,01,04,08,39,975.92
2008,01,04,08,40,975.92
2008,01,04,08,41,975.92
2008,01,04,08,42,975.92
2008,01,04,08,43,975.92
2008,01,04,08,44,975.92
2008,01,04,08,45,975.57
2008,01,04,08,46,975.55
2008,01,04,08,47,975.55
2008,01,04,08,48,975.55
2008,01,04,08,49,975.55
2008,01,04,08,50,975.55
2008,01,04,08,51,975.55
2008,01,04,08,52,975.55
2008,01,04,08,53,975.55
2008,01,04,08,54,975.55
2008,01,04,08,55,975.55
2008,01,04,08,56,975.55
2008,01,04,08,57,975.55
2008,01,04,08,58,975.55
2008,01,04,08,59,975.55
2008,01,04,09,00,974.94
2008,01,04,09,01,974.94
2008,01,04,09,02,974.94
2008,01,04,09,03,974.94
2008,01,04,09,04,974.94
2008,01,04,09,05,974.94
2008,01,04,09,06,974.94
2008,01,04,09,07,974.94
2008,01,04,09,08,974.94
2008,01,04,09,09,974.94
2008,01,04,09,10,974.94
2008,01,04,09,11,974.94
2008,01,04,09,12,974.94
2008,01,04,09,13,974.94
2008,01,04,09,14,974.94
2008,01,04,09,15,974.91
2008,01,04,09,16,974.91
2008,01,04,09,17,974.91
2008,01,04,09,18,974.91
2008,01,04,09,19,974.91
2008,01,04,09,20,974.91
2008,01,04,09,21,974.91
2008,01,04,09,22,974.91
2008,01,04,09,23,974.91
2008,01,04,09,24,974.91
2008,01,04,09,25,974.91
2008,01,04,09,26,974.91
2008,01,04,09,27,974.91
2008,01,04,09,28,974.91
2008,01,04,09,29,974.91
2008,01,04,09,30,974.84
2008,01,04,09,31,974.84
2008,01,04,09,32,974.84
2008,01,04,09,33,974.84
2008,01,04,09,34,974.84
2008,01,04,09,35,974.84
2008,01,04,09,36,974.84
2008,01,04,09,37,974.84
2008,01,04,09,38,974.84
2008,01,04,09,39,974.84
2008,01,04,09,40,974.84
2008,01,04,09,41,974.84
2008,01,04,09,42,974.84
2008,01,04,09,43,974.84
2008,01,04,09,44,974.84
2008,01,04,09,45,974.26
2008,01,04,09,46,974.26
2008,01,04,09,47,974.26
2008,01,04,09,48,974.26
2008,01,04,09,49,974.26
2008,01,04,09,50,974.26
2008,01,04,09,51,974.26
2008,01,04,09,52,974.26
2008,01,04,09,53,974.26
2008,01,04,09,54,974.26
2008,01,04,09,55,974.26
2008,01,04,09,56,974.26
2008,01,04,09,57,974.26
2008,01,04,09,58,974.26
2008,01,04,09,59,974.26
2008,01,04,10,00,973.49
2008,01,04,10,01,973.45
2008,01,04,10,02,973.45
2008,01,04,10,03,973.45
2008,01,04,10,04,973.45
2008,01,04,10,05,973.45
2008,01,04,10,06,973.45
2008,01,04,10,07,973.45
2008,01,04,10,08,973.45
2008,01,04,10,09,973.45
2008,01,04,10,10,973.45
2008,01,04,10,11,973.45
2008,01,04,10,12,973.45
2008,01,04,10,13,973.45
2008,01,04,10,14,973.45
2008,01,04,10,15,973.05
2008,01,04,10,16,973.05
2008,01,04,10,17,973.05
2008,01,04,10,18,973.05
2008,01,04,10,19,973.05
2008,01,04,10,20,973.05
2008,01,04,10,21,973.05
2008,01,04,10,22,973.05
2008,01,04,10,23,973.05
2008,01,04,10,24,973.05
2008,01,04,10,25,973.05
2008,01,04,10,26,973.05
2008,01,04,10,27,973.05
2008,01,04,10,28,973.05
2008,01,04,10,29,973.05
2008,01,04,10,30,972.37
2008,01,04,10,31,972.37
2008,01,04,10,32,972.37
2008,01,04,10,33,972.37
2008,01,04,10,34,972.37
2008,01,04,10,35,972.37
2008,01,04,10,36,972.37
2008,01,04,10,37,972.37
2008,01,04,10,38,972.37
2008,01,04,12,03,972.20
2008,01,04,12,04,972.20
2008,01,04,12,05,972.20
2008,01,04,12,06,972.20
2008,01,04,12,07,972.20
2008,01,04,12,08,972.20
2008,01,04,12,09,972.20
2008,01,04,12,10,972.20
2008,01,04,12,11,972.20
2008,01,04,12,12,972.20
2008,01,04,12,13,972.20
2008,01,04,12,14,972.20
2008,01,04,12,15,971.88
2008,01,04,12,16,971.86
2008,01,04,12,17,971.86
2008,01,04,12,18,971.86
2008,01,04,12,19,971.86
2008,01,04,12,20,971.86
2008,01,04,12,21,971.86
2008,01,04,12,22,971.86
2008,01,04,12,23,971.86
2008,01,04,12,24,971.86
2008,01,04,12,25,971.86
2008,01,04,12,26,971.86
2008,01,04,12,27,971.86
2008,01,04,12,28,971.86
2008,01,04,12,29,971.86
2008,01,04,12,30,971.86
2008,01,04,12,31,971.86
2008,01,04,12,32,971.86
2008,01,04,12,33,971.86
2008,01,04,12,34,971.86
2008,01,04,12,35,971.86
2008,01,04,12,36,971.86
2008,01,04,12,37,971.86
2008,01,04,12,38,971.86
2008,01,04,12,39,971.86
2008,01,04,12,40,971.86
2008,01,04,12,41,971.86
2008,01,04,12,42,971.86
2008,01,04,12,43,971.86
2008,01,04,12,44,971.86
2008,01,04,12,45,971.99
2008,01,04,12,46,972.00
2008,01,04,12,47,972.00
2008,01,04,12,48,972.00
2008,01,04,12,49,972.00
2008,01,04,12,50,972.00
2008,01,04,12,51,972.00
2008,01,04,12,52,972.00
2008,01,04,12,53,972.00
2008,01,04,12,54,972.00
2008,01,04,12,55,972.00
2008,01,04,12,56,972.00
2008,01,04,12,57,972.00
2008,01,04,12,58,972.00
2008,01,04,12,59,972.00
2008,01,04,13,00,972.19
2008,01,04,13,01,972.20
2008,01,04,13,02,972.20
2008,01,04,13,03,972.20
2008,01,04,13,04,972.20
2008,01,04,13,05,972.20
2008,01,04,13,06,972.20
2008,01,04,13,07,972.20
2008,01,04,13,08,972.20
2008,01,04,13,09,972.20
2008,01,04,13,10,972.20
2008,01,04,13,11,972.20
2008,01,04,13,12,972.20
2008,01,04,13,13,972.20
2008,01,04,13,14,972.20
2008,01,04,13,15,972.40
2008,01,04,13,16,972.40
2008,01,04,13,17,972.40
2008,01,04,13,18,972.40
2008,01,04,13,19,972.40
2008,01,04,13,20,972.40
2008,01,04,13,21,972.40
2008,01,04,13,22,972.40
2008,01,04,13,23,972.40
2008,01,04,13,24,972.40
2008,01,04,13,25,972.40
2008,01,04,13,26,972.40
2008,01,04,13,27,972.40
2008,01,04,13,28,972.40
2008,01,04,13,29,972.40
2008,01,04,13,30,971.83
2008,01,04,13,31,971.83
2008,01,04,13,32,971.83
2008,01,04,13,33,971.83
2008,01,04,13,34,971.83
2008,01,04,13,35,971.83
2008,01,04,13,36,971.83
2008,01,04,13,37,971.83
2008,01,04,13,38,971.83
2008,01,04,13,39,971.83
2008,01,04,13,40,971.83
2008,01,04,13,41,971.83
2008,01,04,13,42,971.83
2008,01,04,13,43,971.83
2008,01,04,13,44,971.83
2008,01,04,13,45,971.79
2008,01,04,13,46,971.79
2008,01,04,13,47,971.79
2008,01,04,13,48,971.79
2008,01,04,13,49,971.79
2008,01,04,13,50,971.79
2008,01,04,13,51,971.79
2008,01,04,13,52,971.79
2008,01,04,13,53,971.79
2008,01,04,13,54,971.79
2008,01,04,13,55,971.79
2008,01,04,13,56,971.79
2008,01,04,13,57,971.79
2008,01,04,13,58,971.79
2008,01,04,13,59,971.79
2008,01,04,14,00,971.79
2008,01,04,14,01,971.79
2008,01,04,14,02,971.79
2008,01,04,14,03,971.79
2008,01,04,14,04,971.79
2008,01,04,14,05,971.79
2008,01,04,14,06,971.79
2008,01,04,14,07,971.79
2008,01,04,14,08,971.79
2008,01,04,14,09,971.79
2008,01,04,14,10,971.79
2008,01,04,14,11,971.79
2008,01,04,14,12,971.79
2008,01,04,14,13,971.79
2008,01,04,14,14,971.79
2008,01,04,14,15,971.95
2008,01,04,14,16,971.96
2008,01,04,14,17,971.96
2008,01,04,14,18,971.96
2008,01,04,14,19,971.96
2008,01,04,14,20,971.96
2008,01,04,14,21,971.96
2008,01,04,14,22,971.96
2008,01,04,14,23,971.96
2008,01,04,14,24,971.96
2008,01,04,14,25,971.96
2008,01,04,14,26,971.96
2008,01,04,14,27,971.96
2008,01,04,14,28,971.96
2008,01,04,14,29,971.96
2008,01,04,14,30,971.83
2008,01,04,14,31,971.83
2008,01,04,14,32,971.83
2008,01,04,14,33,971.83
2008,01,04,14,34,971.83
2008,01,04,14,35,971.83
2008,01,04,14,36,971.83
2008,01,04,14,37,971.83
2008,01,04,14,38,971.83
2008,01,04,14,39,971.83
2008,01,04,14,40,971.83
2008,01,04,14,41,971.83
2008,01,04,14,42,971.83
2008,01,04,14,43,971.83
2008,01,04,14,44,971.83
2008,01,04,14,45,972.03
2008,01,04,14,46,972.03
2008,01,04,14,47,972.03
2008,01,04,14,48,972.03
2008,01,04,14,49,972.03
2008,01,04,14,50,972.03
2008,01,04,14,51,972.03
2008,01,04,14,52,972.03
2008,01,04,14,53,972.03
2008,01,04,14,54,972.03
2008,01,04,14,55,972.03
2008,01,04,14,56,972.03
2008,01,04,14,57,972.03
2008,01,04,14,58,972.03
2008,01,04,14,59,972.03
2008,01,04,15,00,971.80
2008,01,04,15,01,971.79
2008,01,04,15,02,971.79
2008,01,04,15,03,971.79
2008,01,04,15,04,971.79
2008,01,04,15,05,971.79
2008,01,04,15,06,971.79
2008,01,04,15,07,971.79
2008,01,04,15,08,971.79
2008,01,04,15,09,971.79
2008,01,04,15,10,971.79
2008,01,04,15,11,971.79
2008,01,04,15,12,971.79
2008,01,04,15,13,971.79
2008,01,04,15,14,971.79
2008,01,04,15,15,971.83
2008,01,04,15,16,971.83
2008,01,04,15,17,971.83
2008,01,04,15,18,971.83
2008,01,04,15,19,971.83
2008,01,04,15,20,971.83
2008,01,04,15,21,971.83
2008,01,04,15,22,971.83
2008,01,04,15,23,971.83
2008,01,04,15,24,971.83
2008,01,04,15,25,971.83
2008,01,04,15,26,971.83
2008,01,04,15,27,971.83
2008,01,04,15,28,971.83
2008,01,04,15,29,971.83
2008,01,04,15,30,971.86
2008,01,04,15,31,971.86
2008,01,04,15,32,971.86
2008,01,04,15,33,971.86
2008,01,04,15,34,971.86
2008,01,04,15,35,971.86
2008,01,04,15,36,971.86
2008,01,04,15,37,971.86
2008,01,04,15,38,971.86
2008,01,04,15,39,971.86
2008,01,04,15,40,971.86
2008,01,04,15,41,971.86
2008,01,04,15,42,971.86
2008,01,04,15,43,971.86
2008,01,04,15,44,971.86
2008,01,04,15,45,971.62
2008,01,04,15,46,971.62
2008,01,04,15,47,971.62
2008,01,04,15,48,971.62
2008,01,04,15,49,971.62
2008,01,04,15,50,971.62
2008,01,04,15,51,971.62
2008,01,04,15,52,971.62
2008,01,04,15,53,971.62
2008,01,04,15,54,971.62
2008,01,04,15,55,971.62
2008,01,04,15,56,971.62
2008,01,04,15,57,971.62
2008,01,04,15,58,971.62
2008,01,04,15,59,971.62
2008,01,04,16,00,970.84
2008,01,04,16,01,970.84
2008,01,04,16,02,970.84
2008,01,04,16,03,970.84
2008,01,04,16,04,970.84
2008,01,04,16,05,970.84
2008,01,04,16,06,970.84
2008,01,04,16,07,970.84
2008,01,04,16,08,970.84
2008,01,04,16,09,970.84
2008,01,04,16,10,970.84
2008,01,04,16,11,970.84
2008,01,04,16,12,970.84
2008,01,04,16,13,970.84
2008,01,04,16,14,970.84
2008,01,04,16,15,970.81
2008,01,04,16,16,970.81
2008,01,04,16,17,970.81
2008,01,04,16,18,970.81
2008,01,04,16,19,970.81
2008,01,04,16,20,970.81
2008,01,04,16,21,970.81
2008,01,04,16,22,970.81
2008,01,04,16,23,970.81
2008,01,04,16,24,970.81
2008,01,04,16,25,970.81
2008,01,04,16,26,970.81
2008,01,04,16,27,970.81
2008,01,04,16,28,970.81
2008,01,04,16,29,970.81
2008,01,04,16,30,970.64
2008,01,04,16,31,970.64
2008,01,04,16,32,970.64
2008,01,04,16,33,970.64
2008,01,04,16,34,970.64
2008,01,04,16,35,970.64
2008,01,04,16,36,970.64
2008,01,04,16,37,970.64
2008,01,04,16,38,970.64
2008,01,04,16,39,970.64
2008,01,04,16,40,970.64
2008,01,04,16,41,970.64
2008,01,04,16,42,970.64
2008,01,04,16,43,970.64
2008,01,04,16,44,970.64
2008,01,04,16,45,970.51
2008,01,04,16,46,970.51
2008,01,04,16,47,970.51
2008,01,04,16,48,970.51
2008,01,04,16,49,970.51
2008,01,04,16,50,970.51
2008,01,04,16,51,970.51
2008,01,04,16,52,970.51
2008,01,04,16,53,970.51
2008,01,04,16,54,970.51
2008,01,04,16,55,970.51
2008,01,04,16,56,970.51
2008,01,04,16,57,970.51
2008,01,04,16,58,970.51
2008,01,04,16,59,970.51
2008,01,04,17,00,970.30
2008,01,04,17,01,970.30
2008,01,04,17,02,970.30
2008,01,04,17,03,970.30
2008,01,04,17,04,970.30
2008,01,04,17,05,970.30
2008,01,04,17,06,970.30
2008,01,04,17,07,970.30
2008,01,04,17,08,970.30
2008,01,04,17,09,970.30
2008,01,04,17,10,970.30
2008,01,04,17,11,970.30
2008,01,04,17,12,970.30
2008,01,04,17,13,970.30
2008,01,04,17,14,970.30
2008,01,04,17,15,970.30
2008,01,04,17,16,970.30
2008,01,04,17,17,970.30
2008,01,04,17,18,970.30
2008,01,04,17,19,970.30
2008,01,04,17,20,970.30
2008,01,04,17,21,970.30
2008,01,04,17,22,970.30
2008,01,04,17,23,970.30
2008,01,04,17,24,970.30
2008,01,04,17,25,970.30
2008,01,04,17,26,970.30
2008,01,04,17,27,970.30
2008,01,04,17,28,970.30
2008,01,04,17,29,970.30
2008,01,04,17,30,969.96
2008,01,04,17,31,969.96
2008,01,04,17,32,969.96
2008,01,04,17,33,969.96
2008,01,04,17,34,969.96
2008,01,04,17,35,969.96
2008,01,04,17,36,969.96
2008,01,04,17,37,969.96
2008,01,04,17,38,969.96
2008,01,04,17,39,969.96
2008,01,04,17,40,969.96
2008,01,04,17,41,969.96
2008,01,04,17,42,969.96
2008,01,04,17,43,969.96
2008,01,04,17,44,969.96
2008,01,04,17,45,969.42
2008,01,04,17,46,969.42
2008,01,04,17,47,969.42
2008,01,04,17,48,969.42
2008,01,04,17,49,969.42
2008,01,04,17,50,969.42
2008,01,04,17,51,969.42
2008,01,04,17,52,969.42
2008,01,04,17,53,969.42
2008,01,04,17,54,969.42
2008,01,04,17,55,969.42
2008,01,04,17,56,969.42
2008,01,04,17,57,969.42
2008,01,04,17,58,969.42
2008,01,04,17,59,969.42
2008,01,04,18,00,969.62